Regional Weather Roundup
Issued by NWS

Home | Current Version | Previous Version | Text Only | Print | Product List | Glossary Off
Versions: 1 2 3 4 5 6 7 8 9 10 11 12 13 14 15 16 17 18 19 20 21 22 23 24 25 26 27 28 29 30 31 32 33 34 35 36 37 38 39 40 41 42 43 44 45 46 47 48 49 50

304
ASUS43 KBIS 210802
RWRND

NORTH DAKOTA REGIONAL WEATHER ROUNDUP
NATIONAL WEATHER SERVICE BISMARCK ND
200 AM CST SAT JAN 21 2017

NOTE: "FAIR" INDICATES FEW OR NO CLOUDS BELOW 12,000 FEET WITH NO
SIGNIFICANT WEATHER AND/OR OBSTRUCTIONS TO VISIBILITY.


NDZ001>003-009>011-017-210900-
NORTHWEST NORTH DAKOTA

CITY           SKY/WX    TMP DP  RH WIND       PRES   REMARKS
WILLISTON      CLOUDY    22  20  92 CALM      29.30F
MINOT          CLOUDY    29  28  96 CALM      29.31S FOG
MINOT AFB      FOG       27  25  93 CALM      29.30F VSB 1/2
$$

NDZ018>021-031>035-040>046-210900-
SOUTHWEST NORTH DAKOTA

CITY           SKY/WX    TMP DP  RH WIND       PRES   REMARKS
BISMARCK       CLOUDY    31  30  96 NW6       29.32S FOG
DICKINSON      CLOUDY    28  25  88 NW12      29.26F WCI  18
GARRISON         N/A     23  21  92 CALM      29.31S
HETTINGER ARPT CLOUDY    26  22  84 W10       29.29F WCI  16
$$

NDZ004>008-012>016-024-026-027-054-210900-
NORTHEAST NORTH DAKOTA

CITY           SKY/WX    TMP DP  RH WIND       PRES   REMARKS
GRAND FORKS    CLOUDY    35  32  88 SE10      29.42S
GRND FRKS AFB  CLOUDY    35  34  99 SE13      29.41S
DEVILS LAKE    LGT RAIN  33  32  96 SE7       29.36S VSB 1/2
$$

NDZ022-023-025-028>030-036>039-047>053-210900-
SOUTHEAST NORTH DAKOTA

CITY           SKY/WX    TMP DP  RH WIND       PRES   REMARKS
FARGO          CLOUDY    39  35  86 SE9       29.41F
JAMESTOWN      FOG       34  34 100 SE12      29.33S VSB 1/2
$$





USA.gov is the U.S. government's official web portal to all federal, state and local government web resources and services.